Regional Weather Roundup
Issued by NWS

Home | Current Version | Previous Version | Graphics & Text | Print | Product List | Glossary On
Versions: 1 2 3 4 5 6 7 8 9 10 11 12 13 14 15 16 17 18 19 20 21 22 23 24 25 26 27 28 29 30 31 32 33 34 35 36 37 38 39 40 41 42 43 44 45 46 47 48 49 50
000
ASUS44 KMEG 020810
RWRTN
TENNESSEE HOURLY STATE WEATHER ROUNDUP
NATIONAL WEATHER SERVICE MEMPHIS TN
300 AM CDT THU OCT 02 2014

TNZ002-004-019-021-049-052-054-088>092-020900-
WEST TENNESSEE

CITY           SKY/WX    TMP DP  RH WIND       PRES   REMARKS
MEMPHIS INTL   CLEAR     72  64  76 S8        29.90F
NWS MEMPHIS      N/A     72 N/A N/A MISG        N/A
JACKSON        CLEAR     70  60  70 S5        29.92F
DYERSBURG      CLEAR     70  54  56 S3        29.92S
UNION CITY     CLEAR     64  61  88 S3        29.90F
PARIS          CLEAR     64  57  77 SE6       29.94S
HUNTINGDON     CLOUDY    67  59  75 SE5       29.93F
LEXINGTON      CLEAR     63  61  94 CALM      29.94S
SAVANNAH       CLEAR     66  59  77 S6        29.96F
$$

TNZ008-025-027-028-033-062-065-066-020900-
NORTH MIDDLE TENNESSEE

CITY           SKY/WX    TMP DP  RH WIND       PRES   REMARKS
NASHVILLE      CLEAR     64  58  80 S5        29.98S
PORTLAND       CLEAR     63  55  77 SE7       29.98S
CLARKSVILLE    CLEAR     62  59  90 SE6       29.94F
LEBANON        CLEAR     59  56  89 CALM      29.98S
SMYRNA         CLEAR     61  59  93 CALM      30.00S
COOKEVILLE     CLEAR     54  54 100 CALM      30.01F
LIVINGSTON     CLEAR     67  55  65 SW3       30.03S
GALLATIN       CLEAR     60  57  89 CALM      29.99F
CROSSVILLE     CLEAR     59  54  83 CALM      30.07S
$$

TNZ061-075-076-078-094-096-097-020900-
SOUTH MIDDLE TENNESSEE

CITY           SKY/WX    TMP DP  RH WIND       PRES   REMARKS
LEWISBURG      CLEAR     58  56  93 CALM      29.99S
FAYETTEVILLE   CLEAR     64  57  77 S7        30.01S
TULLAHOMA      CLEAR     57  55  94 CALM      30.03S
WINCHESTER     CLEAR     64  59  82 SE6       30.02S
MCMINNVILLE    CLEAR     57  57 100 CALM      30.02S
COLUMBIA       CLEAR    N/A N/A N/A CALM      29.97F
SHELBYVILLE    CLEAR     63  61  94 CALM      30.01S
$$

TNZ017-018-042-046-047-020900-
NORTHEAST TENNESSEE

CITY           SKY/WX    TMP DP  RH WIND       PRES   REMARKS
TRI CITIES     CLEAR     51  49  92 CALM      30.08S FOG
ELIZABETHTON   SUNNY     55  52  88 NE5       30.09S
$$

TNZ012-013-036-069-073-074-020900-
CENTRAL EAST TENNESSEE

CITY           SKY/WX    TMP DP  RH WIND       PRES   REMARKS
KNOXVILLE      CLEAR     59  56  89 CALM      30.03S
OAK RIDGE      CLEAR     57  55  93 CALM      30.07R
GATLINBURG     SUNNY     55  54  94 CALM      30.05S
MORRISTOWN     SUNNY     57  54  88 E5        30.07S
$$

TNZ083-085-099-020900-
SOUTHEAST TENNESSEE

CITY           SKY/WX    TMP DP  RH WIND       PRES   REMARKS
CHATTANOOGA    CLEAR     62  59  90 CALM      30.04R FOG
$$

SKY/WX REPORTED AS FAIR MEANS FEW OR NO CLOUDS BELOW
12 THOUSAND FEET.



USA.gov is the U.S. government's official web portal to all federal, state and local government web resources and services.